Location: Mahannah Oil Field
(37.4664°N, 96.6003°W)
Time: 14:27:21
(UTC+00:00)

Altair - Pass Details

Date: 29 January 2021
Orbit: 1501 x 1682 km, 47.2° (Epoch: 05 March)

Event Time Altitude Azimuth Distance (km) Brightness Sun altitude
Exits shadow 10:58:21 58° 285° (WNW) 1,887 7.5 -30.6°
Maximum altitude 11:00:17 68° 335° (NNW) 1,767 7.6 -30.2°
Drops below altitude 10° 11:10:27 10° 59° (ENE) 3,948 10.3 -28.2°
Sets 11:13:40 0° 62° (ENE) 4,938 11.0 -27.6°
